Volver al catálogo

STARLINK-1267

ActivoComunicacionesVLEO
NORAD 45384·PAYLOAD·🇺🇸 United States

Lanzado Mar 18, 2020 desde Cape Canaveral Space Force Station

Loading…

Próximos Pases (próximas 24 horas)

TLE

ActualizadoSource: CelesTrak SupGP

Época: Sep 14, 2026, 20:27 UTC

1 45384C 20019AA  26257.85256944  .00145660  00000+0  62738-3 0  2578
2 45384  53.0377 275.6185 0005776  31.6759  26.4242 15.84186035    13

Sigue STARLINK-1267 en tiempo real con AllMySat

Download on the App Store